User: anonymous   Login
Location: Bakersfield
(35.3730°N, 119.0180°W)
Time: 08:50:25
(UTC-08:00)
Language:

Cosmos 1222 Rocket - Orbit

View from above orbital plane
View from above orbital plane
View from above satellite
View from above satellite

Ground track
Ground track

The orbit data is extracted from the following two-line orbital elements,

1 12072U 80093B   15 57.69806902  .00128667  00000-0  51050-3 0  9994
2 12072 081.1719 007.9794 0010147 130.2510 230.0178 15.86552889885955
Epoch (UTC): 26 February 2015 16:45:13
Eccentricity: 0.0010147
inclination: 81.1719°
perigee height: 305 km
apogee height: 319 km
right ascension of ascending node: 7.9794°
argument of perigee: 130.2510°
revolutions per day: 15.86552889
mean anomaly at epoch: 230.0178°
orbit number at epoch: 88595

The dashed part of the orbit path shows where the satellite is in the earth's shadow,  

DLR